Location: Dietersberg
(48.2500°N, 15.5500°E)
Time: 14:44:43
(UTC+00:00)

Daily predictions for brighter satellites

Satellite Brightness Start Highest point End
(mag) Time Altitude Azimuth Time Altitude Azimuth Time Altitude Azimuth
Cosmos 2221 2.7 15:35:21 10° SSW 15:39:38 77° W 15:43:59 10° N
CZ-4B R/B 4.3 15:36:02 10° ESE 15:39:59 21° ENE 15:43:53 10° N
Sich 1 3.7 15:36:42 10° N 15:40:37 33° ENE 15:44:31 10° SE
SL-08 R/B 3.3 15:36:11 10° NNE 15:40:53 69° ESE 15:45:30 10° S
Cosmos 1782 3.9 15:37:38 10° SE 15:40:55 25° E 15:44:12 10° NE
Envisat 4.5 15:36:44 10° S 15:41:32 42° W 15:46:23 10° NNW
USA 307 3.7 15:38:07 10° WNW 15:42:06 37° N 15:46:05 10° ENE
Cosmos 1464 Rocket 4.2 15:35:46 10° S 15:42:10 83° W 15:48:35 10° N
Cosmos 2360 4.2 15:38:12 10° NNW 15:43:59 78° ENE 15:49:43 10° SSE
NOAA 6 4.3 15:39:11 10° SE 15:44:03 45° ENE 15:48:56 10° N
Nadezhda 4 Rocket 4.1 15:38:18 10° N 15:44:41 89° E 15:51:02 10° S
SL-24 R/B - RUBIN 2 3.6 15:41:31 10° NNW 15:46:03 56° NE 15:50:19 10° SE
Cosmos 1805 Rocket 3.7 15:43:38 10° N 15:47:52 49° ENE 15:52:04 10° SSE
Cosmos 1340 Rocket 3.2 15:46:29 10° NNW 15:50:33 72° W 15:54:36 10° S
Meteor 1-20 Rocket 4.3 15:44:47 10° N 15:50:39 78° ENE 15:56:30 10° SSE
Cosmos 2360 Rocket 3.9 15:50:02 10° N 15:52:48 14° NNE 15:55:33 10° ENE
Cosmos 1842 Rocket 4.1 15:49:43 10° SSW 15:54:09 65° WNW 15:58:38 10° N
Cosmos 858 Rocket 4.5 15:49:01 10° NNW 15:54:19 70° ENE 15:59:34 10° SSE
CZ-4C R/B 3.8 15:51:23 10° N 15:55:10 58° WNW 15:58:44 10° SSW
Cosmos 540 Rocket 3.6 15:50:17 10° S 15:55:15 54° ESE 16:00:14 10° NNE
ERBS 4.0 15:53:23 10° WNW 15:55:49 19° NNW 15:58:15 10° NE
Lacrosse 5 rocket 1.9 15:56:13 10° NW 15:59:49 37° NNE 16:03:35 10° E
ATLAS CENTAUR R/B 3.8 15:58:13 10° WNW 16:00:46 15° NNW 16:03:25 10° NNE
Cosmos 1428 Rocket 4.5 15:55:33 10° N 16:01:39 65° ENE 16:07:46 10° SSE
Cosmos 1092 Rocket 4.0 15:56:25 10° N 16:02:48 75° E 16:09:07 10° SSE
Cosmos 1666 3.6 16:01:03 10° NNE 16:04:14 26° ENE 16:07:24 10° SE
USA 308 3.6 16:00:50 10° WNW 16:04:49 38° N 16:08:06 14° ENE
COSMOS 2455 3.0 16:01:48 10° SSW 16:07:39 57° ESE 16:13:30 10° NE
Cosmos 1697 Rocket 3.3 16:09:12 10° NW 16:14:44 60° WSW 16:20:14 10° S
Cosmos 2322 Rocket 3.3 16:10:20 10° N 16:14:51 23° NE 16:18:22 14° E
Cosmos 1814 Rocket 4.5 16:11:28 10° S 16:16:17 39° ESE 16:20:43 12° NE
CZ-4C R/B 2.9 16:09:37 10° NW 16:16:41 71° NE 16:25:02 10° SE
PSLV R/B 3.8 16:15:14 10° SSE 16:18:49 51° ENE 16:22:30 10° N
Cosmos 468 Rocket 4.4 16:13:48 10° SW 16:18:55 62° WNW 16:24:07 10° NNE
Cosmos 1980 Rocket 2.1 16:14:21 10° NNW 16:20:05 83° ENE 16:25:43 10° SSE
Cosmos 921 Rocket 4.4 16:17:34 10° SE 16:20:26 18° E 16:21:05 17° E
Meteor 2-21 4.4 16:14:58 10° N 16:21:06 78° E 16:27:08 10° SSE
COSMO-SKYMED 1 3.5 16:22:42 16° NE 16:25:10 27° E 16:28:51 10° SSE
ATLAS CENTAUR R/B 2.9 16:15:46 10° SW 16:25:43 85° NW 16:28:49 19° NE
Cosmos 1627 Rocket 4.5 16:19:31 10° N 16:25:44 88° W 16:31:51 10° S
Cosmos 2369 4.0 16:21:05 10° NNW 16:26:50 73° WSW 16:32:30 10° SSE
Cosmos 1933 3.7 16:23:51 10° SSW 16:27:52 66° W 16:31:54 10° N
Cosmos 1633 Rocket 3.2 16:25:18 10° N 16:29:33 48° ENE 16:33:48 10° SSE
Cosmos 2279 Rocket 4.1 16:23:39 10° SSE 16:29:38 52° E 16:35:37 10° NNE
CZ-4B R/B 4.4 16:26:44 10° SSW 16:30:28 38° W 16:34:04 10° NNW
USA 305 3.5 16:26:26 10° WNW 16:30:30 42° NNE 16:32:39 23° ENE
Cosmos 1812 2.8 16:27:43 10° S 16:31:27 51° E 16:34:51 12° NNE
CORIOLIS 4.2 16:26:03 10° SSE 16:31:27 83° WSW 16:36:56 10° NNW
Cosmos 1818 3.6 16:27:38 10° NNW 16:33:04 57° NE 16:38:26 10° SE
SL-16 R/B 2.7 16:29:05 10° NNW 16:34:20 36° NE 16:39:04 12° ESE
Meteor 1-5 Rocket 4.3 16:28:26 10° N 16:34:24 64° ENE 16:40:14 10° SSE
YAOGAN 1 4.2 16:36:55 17° NNE 16:36:55 17° NNE 16:38:30 10° NNE
AQUARIUS 4.4 16:31:33 10° S 16:36:02 74° WSW 16:40:32 10° NNW
Cosmos 1151 Rocket 3.1 16:32:26 10° S 16:36:40 54° E 16:40:56 10° NNE
USA 267 3.3 16:32:05 17° NE 16:37:18 89° SE 16:43:52 10° WSW
Cosmos 2082 Rocket 2.1 16:32:21 10° SSW 16:38:01 78° ESE 16:43:01 14° NNE
SMAP 3.7 16:36:20 10° S 16:40:54 58° W 16:45:31 10° NNW
Meteor 1-14 Rocket 4.3 16:38:02 10° N 16:43:55 81° ENE 16:49:52 10° SSE
ARGOS 3.2 16:42:08 10° SE 16:47:23 54° ENE 16:52:39 10° N
MOS 1-B 4.3 16:41:43 10° SSE 16:47:30 85° ENE 16:53:19 10° NNW
Landsat 5 4.2 16:48:37 30° E 16:48:37 30° E 16:51:58 10° SSE
Cosmos 2333 Rocket 3.7 16:45:22 10° N 16:49:04 18° NE 16:49:04 18° NE
Cosmos 1634 Rocket 4.2 16:42:57 10° SSW 16:49:16 77° W 16:55:38 10° N
Cosmos 2278 3.8 16:44:23 10° NNW 16:50:07 82° WSW 16:55:48 10° SSE
Cosmos 2026 Rocket 4.5 16:44:16 10° NNW 16:50:19 61° W 16:56:15 10° S
GEOS 3 Rocket 4.2 16:49:28 27° ENE 16:51:19 36° NE 16:56:01 10° NNW
Cosmos 2208 Rocket 4.1 16:48:28 10° S 16:53:45 58° ESE 16:57:09 22° NE
Cosmos 44 Rocket 3.1 16:50:11 10° NW 16:55:09 77° NE 16:59:24 13° SE
Cosmos 1833 Rocket 3.8 16:50:40 10° SW 16:55:59 42° NW 17:01:20 10° NNE
Cosmos 2150 Rocket 4.0 16:51:41 10° NNW 16:56:47 54° ENE 17:01:54 10° SE
Cosmos 841 Rocket 3.9 16:51:54 10° SW 16:57:00 62° WNW 17:01:45 12° NNE
Cosmos 1666 Rocket 3.7 16:52:47 10° NNW 16:57:14 75° W 17:01:37 10° S
Okean O Rocket 1.6 16:53:04 10° SSE 16:57:27 61° ENE 17:01:52 10° N
MOS 1-B Rocket 4.0 16:51:53 10° NNE 16:57:50 77° ESE 17:04:40 10° S
Cosmos 1328 Rocket 3.5 16:55:55 10° S 17:00:20 69° E 17:03:23 20° NNE
Cosmos 1470 Rocket 3.5 16:56:14 10° N 17:00:40 60° ENE 17:05:06 10° SSE
H-2A R/B 2.2 16:55:55 10° S 17:01:04 75° WSW 17:06:07 10° NNW
USA 306 3.1 16:58:43 10° WNW 17:02:52 50° NNE 17:03:36 44° NE
COSMOS 2406 4.1 16:59:35 10° SW 17:05:06 46° NW 17:10:09 12° NNE
Cosmos 2219 Rocket 3.8 17:02:02 10° N 17:04:46 17° NNE 17:04:46 17° NNE
ISS -1.7 17:03:02 10° W 17:05:58 27° SW 17:08:20 13° SSE
CZ-2C R/B 2.4 17:02:59 14° NNE 17:07:32 70° ESE 17:12:41 10° S
Meteor 2-8 Rocket 4.3 17:01:51 10° S 17:07:59 75° E 17:14:09 10° NNE
ATLAS 2AS CENTAUR R/B 4.1 17:02:04 10° NW 17:08:07 25° N 17:10:37 21° NE
USA 32 4.4 17:04:06 10° SSE 17:08:49 39° E 17:08:49 39° E
Cosmos 1125 Rocket 3.4 17:03:51 10° NNW 17:09:05 63° ENE 17:14:05 11° SE
USA 234 3.7 17:05:14 10° SE 17:11:41 61° SW 17:18:10 10° WNW
SKYMED 2 3.4 17:11:18 30° NNE 17:13:27 80° ESE 17:17:47 10° S
Meteor 1-27 Rocket 4.1 17:09:23 10° SSE 17:14:11 39° E 17:14:11 39° E
Cosmos 1900 4.2 17:12:34 10° SSW 17:17:26 84° SE 17:18:52 47° NE
Cosmos 1655 Rocket 3.9 17:12:39 10° N 17:19:06 78° E 17:25:27 10° SSE
CZ-4B R/B 3.4 17:14:39 10° S 17:20:02 70° WSW 17:25:23 10° NNW
USA 307 3.0 17:18:20 10° WNW 17:22:25 56° NNE 17:22:25 56° NNE
Cosmos 2180 Rocket 4.5 17:16:32 10° S 17:22:53 85° W 17:29:12 10° N
Meteor 2-6 Rocket 4.2 17:17:24 10° SSW 17:23:09 83° WNW 17:28:31 11° N
SJ-11-01 4.4 17:19:38 10° S 17:24:23 74° WSW 17:29:09 10° NNW
APEX 4.4 17:21:15 10° SSW 17:23:24 28° S 17:23:24 28° S
ATLAS 5 CENTAUR R/B 1.7 17:20:17 10° NW 17:26:27 77° N 17:26:27 77° N
deb Chang Zheng 4 4.2 17:26:00 10° S 17:30:14 55° W 17:34:29 10° NNW
Cosmos 2237 4.1 17:28:56 10° NNW 17:34:37 61° ENE 17:34:57 60° ENE
Cosmos 2360 Rocket 2.6 17:32:45 10° NNW 17:37:22 45° NNE 17:37:22 45° NNE
Lacrosse 5 rocket 1.8 17:35:11 10° WNW 17:39:04 53° SW 17:39:13 53° SSW
ATLAS CENTAUR R/B 4.2 17:40:43 10° N 17:41:01 10° N 17:41:01 10° N
Cosmos 1515 Rocket 3.7 17:40:34 10° SSW 17:44:48 74° WSW 17:44:48 74° WSW
USA 308 3.6 17:40:55 10° WNW 17:44:08 48° NW 17:44:08 48° NW
Meteor 1-11 Rocket 3.9 17:47:05 10° NNW 17:52:42 70° W 17:58:24 10° S
COSMOS 2455 4.1 17:48:24 10° WSW 17:53:53 36° NW 17:56:39 24° N
COSMOS 2428 4.5 17:50:08 10° NNW 17:52:06 18° N 17:52:06 18° N
Cosmos 921 Rocket 3.9 17:54:15 10° SW 17:57:55 46° W 17:57:55 46° W
Cosmos 2322 Rocket 2.2 17:53:51 10° NNW 17:59:34 80° WSW 18:00:16 68° S
COSMO-SKYMED 1 4.0 17:59:55 27° NNW 18:01:23 35° WNW 18:05:20 10° SW
CZ-4C R/B 4.4 17:58:28 10° NW 18:05:09 37° WSW 18:12:40 10° S
SL-16 R/B 3.2 18:13:11 10° NW 18:18:33 44° WSW 18:21:04 28° SSW
USA 267 3.7 18:19:25 47° N 18:20:02 48° NNW 18:26:15 10° W
Cosmos 2082 Rocket 4.1 18:18:15 10° W 18:22:46 24° NW 18:24:53 19° NNW
Okean O Rocket 4.4 18:31:22 10° SW 18:34:12 16° W 18:37:03 10° NW
Cosmos 2333 Rocket 3.9 18:28:49 10° NNW 18:31:05 25° NNW 18:31:05 25° NNW
Cosmos 2219 Rocket 4.3 18:45:08 10° NNW 18:46:30 18° NNW 18:46:30 18° NNW
ATLAS 2AS CENTAUR R/B 4.1 18:54:02 10° NW 18:58:02 30° NNW 18:58:02 30° NNW
Cosmos 2360 Rocket 4.4 19:17:08 10° NW 19:19:09 20° WNW 19:19:09 20° WNW
